Regional Weather Roundup
Issued by NWS

Home | Current Version | Previous Version | Graphics & Text | Print | Product List | Glossary On
Versions: 1 2 3 4 5 6 7 8 9 10 11 12 13 14 15 16 17 18 19 20 21 22 23 24 25 26 27
000
ASUS45 KBOU 292307
RWRCO

WEATHER ROUNDUP FOR COLORADO
NATIONAL WEATHER SERVICE DENVER/BOULDER CO
500 PM MDT FRI JUL 29 2016

NOTE: "FAIR" INDICATES FEW OR NO CLOUDS BELOW 12000 FEET WITH NO
SIGNIFICANT WEATHER AND/OR OBSTRUCTIONS TO VISIBILITY.

COZ001>005-013-030-031-300000-
...NORTHWEST COLORADO...

CITY           SKY/WX    TMP DP  RH WIND       PRES   REMARKS
CRAIG          FAIR      92  29  10 W13G20    30.09F
HAYDEN         FAIR      88  32  13 SW8       30.13F
MEEKER         FAIR      91  33  12 W10G21    30.12F
MOUNT WERNER   NOT AVBL
STEAMBOAT SPGS FAIR      85  32  15 NW3       30.17F
WALDEN         FAIR      77  25  14 NW14G24   30.27F
$$

COZ006>008-011-300000-
...WEST CENTRAL VALLEYS...

CITY           SKY/WX    TMP DP  RH WIND       PRES   REMARKS
GRAND JUNCTION FAIR     101  32   9 W12       29.95F
MONTROSE       FAIR      95  33  11 VRB7      30.07F
EAGLE          SUNNY     90  34  13 NW14G20   30.14F
RIFLE          FAIR      94  32  11 CALM      30.02F
DELTA          NOT AVBL
NUCLA          NOT AVBL
$$

COZ017>023-064>068-300000-
...SOUTHWEST COLORADO...

CITY           SKY/WX    TMP DP  RH WIND       PRES   REMARKS
DURANGO        FAIR      89  28  11 W12       30.11F
CORTEZ         FAIR      93  30  10 SW3       30.06F
PAGOSA SPRINGS FAIR      85  20   9 SW8       30.22F
TELLURIDE      FAIR      78  27  15 CALM      30.40F
WOLF CREEK PAS FAIR      66  30  26 NW9G17    30.62F
$$

COZ009-010-012-014-032>034-037-058>063-300000-
...CENTRAL COLORADO...

CITY           SKY/WX    TMP DP  RH WIND       PRES   REMARKS
ASPEN          FAIR      85  31  14 VRB6      30.23F
BUENA VISTA    FAIR      84  23  11 NW18G28   30.23F
COPPER MTN     FAIR      64  21  19 NW16G25   30.62F
BERTHOUD PASS  FAIR      55  41  58 MISG      30.63F
COTTONWOOD PAS CLOUDY    79  12   8 CALM      30.41F
GUNNISON       FAIR      84  30  14 NW10G22   30.25F
KREMMLING      FAIR      88  14   6 NW10G18   30.22F
LEADVILLE      FAIR      70  24  17 N8G17     30.43F
MONARCH PASS   FAIR      68  23  18 MISG      30.71F
SALIDA         FAIR      90  33  13 E9G20     30.26R
SUNLIGHT       FAIR      70  32  24 MISG      30.55F
WILKERSON PASS FAIR      59  41  51 E6G22     30.57F
$$

COZ069>075-300000-
...SAN LUIS VALLEY/SANGRE DE CRISTO MOUNTAINS...

CITY           SKY/WX    TMP DP  RH WIND       PRES   REMARKS
ALAMOSA        FAIR      90  26  10 NW17G26   30.17F
LA VETA PASS   FAIR      64  45  48 NE18G31   30.46S
SAGUACHE       FAIR      88  25  10 NW20G33   30.20F
$$

COZ035-036-038>040-300000-
...NORTHERN COLORADO FRONT RANGE...

CITY           SKY/WX    TMP DP  RH WIND       PRES   REMARKS
DENVER INTL AP FAIR      88  42  20 VRB5      30.06F
DMNS CITY PARK   N/A     85  48  27 N1G8      30.06F
AURORA         MOSUNNY   87  49  26 E10       30.09F
FRONT RANGE AP PTSUNNY   90  54  29 E12G23    30.08F
ERIE MUNI ARPT FAIR      87  49  27 E7        30.05F
BOULDER MUN AP FAIR      86  52  30 E3        30.06F
CENTENNIAL     FAIR      83  49  30 NW8       30.10F
BROOMFIELD     MOSUNNY   84  48  28 VRB6      30.10F
LONGMONT       NOT AVBL
$$

COZ041-046-047-076>085-087-088-300000-
...PIKES PEAK/PALMER DIVIDE AND SOUTHERN FOOTHILLS...

CITY           SKY/WX    TMP DP  RH WIND       PRES   REMARKS
COLO. SPRINGS  PTSUNNY   75  56  51 S9        30.20F
A. F. ACADEMY  FAIR      76  54  46 S14       30.20F
SCHRIEVER AFB  NOT AVBL
ELLICOTT       NOT AVBL
FALCON         FAIR      75  54  47 S12       30.25
FORT CARSON    NOT AVBL
LIMON          FAIR      76  56  49 SE15G24   30.15F
MONUMENT HILL  FAIR      73  54  49 S14G22    30.24F
TRINIDAD       NOT AVBL
$$

COZ042>045-048>051-090-091-300000-
...NORTHEAST COLORADO...

CITY           SKY/WX    TMP DP  RH WIND       PRES   REMARKS
GREELEY ARPT   FAIR      84  57  39 E12       30.04F
AKRON          FAIR      79  58  48 SE18      30.09F
BURLINGTON     FAIR      82  57  42 S15       30.10F
WRAY           NOT AVBL
STERLING       NOT AVBL
HOLYOKE        NOT AVBL
FORT MORGAN    NOT AVBL
$$

COZ086-089-092>099-300000-
...SOUTHEAST COLORADO...

CITY           SKY/WX    TMP DP  RH WIND       PRES   REMARKS
PUEBLO         FAIR      84  56  38 E14       30.09R
LA JUNTA       FAIR      86  62  44 E21G28    30.05S
LAMAR          FAIR      83  62  49 SE13G23   30.04F
SPRINGFIELD      N/A     79  60  52 SE13      30.07F
$$




USA.gov is the U.S. government's official web portal to all federal, state and local government web resources and services.